Vertical_Velocity
-0 -3 -4 1 -1 0 1 1 0 -0 -1 -1 0 1 -0 -0 -2 -4 -2 2 1 2 0 -2 -3 0 -1 -4 -1 -2 -1 -2 -2 0 -1 -2 -4 -3 -3 -2 -1 2 -0
-5 0 -2 -0 -1 1 -0 -1 2 -1 -0 -1 -0 -2 -3 0 2 -1 -2 -2 -1 -2 -1 -2 -1 -2 2 0 -4 -0 -0 -3 -2 1 -1 -1 0 -1 2 0 -1 -1 2
-5 -2 -0 1 -2 -1 1 -0 -2 -1 -0 1 -2 -1 -1 -1 -0 2 1 -1 1 2 0 -2 -4 -3 -3 0 -2 -2 -1 -1 -0 -1 1 -0 2 -1 -2 -1 -1 0 -0
-5 -4 -4 1 1 -1 0 -0 -1 -1 1 -2 -3 -2 -0 -1 -2 1 -1 -1 0 -4 -2 -1 2 -1 -3 -3 -2 -2 -3 0 1 4 5 4 -1 2 1 -1 -1 -1 -0
-1 -2 1 -1 -1 -0 -1 -3 -2 -1 -1 -1 -0 0 -0 1 -1 -1 0 0 -4 2 -3 -3 -7 -0 -2 0 -3 1 -0 -3 7 0 -4 4 7 3 3 1 -1 -1 0
-3 -1 -2 -1 1 1 -1 -1 -3 0 -1 -3 -1 2 2 1 0 2 -0 -1 3 3 2 1 5 -4 1 -3 -3 -7 -4 -3 -1 -1 0 11 4 2 -0 3 1 -3 -2
-3 -2 -1 -0 -0 -1 2 3 1 -1 0 -1 3 2 1 1 3 1 -1 -0 2 1 1 5 -1 1 -5 -0 -2 -6 -3 -1 -2 3 0 2 -2 1 1 -0 -1 -3 -1
0 -1 1 0 2 1 -1 0 2 -1 0 2 1 -1 1 -2 -3 -2 -3 -2 1 -1 -1 2 5 6 9 -7 -4 2 -2 -4 -0 -2 1 -2 -0 2 -1 1 2 -4 -3
0 0 0 0 3 0 -1 1 1 4 -0 0 1 0 3 4 1 1 1 3 -0 -3 -1 6 7 5 -1 -9 -2 -11 6 -2 -4 -5 1 -1 -0 -3 -2 -1 3 0 -2
1 0 -0 1 4 2 1 4 0 -1 -0 -2 -0 -0 -1 -2 -0 2 1 0 -0 1 -1 -11 0 6 9 -5 -6 -2 9 5 1 -4 -1 1 -1 -2 -2 4 2 7 3
2 1 -1 -1 5 1 4 3 5 2 1 -2 -2 1 -0 1 -0 1 0 1 2 -5 -1 4 -3 -5 -3 4 2 4 -20 10 4 0 2 -3 2 -4 -2 3 6 -13 2
3 2 -1 1 3 -1 1 2 2 4 1 -2 -0 -1 -0 1 1 -1 -1 1 -3 -1 -4 -3 -2 3 0 -2 3 -6 -2 11 3 2 -0 -2 -6 -12 -6 1 4 -1 -9
0 0 -2 1 1 0 0 1 2 5 0 0 -0 -2 -1 -0 -1 -3 -1 1 1 -2 -0 0 1 1 3 0 3 -1 14 14 -28 -10 -5 -7 5 4 5 2 -0 5 17
2 2 -1 0 -1 -3 -0 -1 0 3 3 1 -1 -3 1 -0 -2 -2 -0 3 3 1 -1 -5 0 -1 3 3 -1 -1 -2 -3 1 -7 0 -5 2 5 16 9 -11 8 16
2 5 3 3 3 1 0 -1 -0 2 4 1 -1 -1 -2 -1 -0 1 1 1 -0 -1 -2 -2 1 -0 -2 -3 -1 2 -2 -2 -5 -5 -8 -4 -6 5 12 2 -8 16 -20
-6 2 0 -0 1 -1 0 -0 -0 1 1 3 -1 -2 0 -1 -1 -0 1 2 -2 -1 -2 -0 -0 -1 3 -1 -2 -1 -0 -2 0 0 1 2 2 5 -5 6 0 -1 6
0 1 3 1 -1 2 1 -0 0 -0 0 0 -0 1 1 -1 2 -2 -1 -1 -2 -4 -2 -4 -3 -3 -3 -2 0 1 0 -3 -2 2 0 -1 7 4 -1 -3 -1 4 7
1 1 -1 1 1 0 -1 2 2 4 1 1 2 0 0 1 2 0 -1 -5 -3 -0 1 -0 2 0 -1 0 -8 0 -0 -5 -0 -0 2 3 0 2 3 1 -2 1 0
3 3 1 -1 -0 -1 -0 1 1 2 3 2 0 1 1 1 1 -1 -3 -2 -0 0 -2 -1 -2 -1 -5 -4 2 -3 -5 -0 -1 1 5 1 3 2 5 2 6 0 4
1 2 2 1 1 1 -0 -2 0 1 3 1 1 0 -0 -3 -5 0 0 -0 2 -0 1 -0 -1 -0 4 -0 -1 -3 -0 3 5 5 -2 -2 -3 -1 -2 3 2 0 -0
2 -0 1 1 3 -0 -0 -1 -0 2 -2 1 -2 -2 -4 -3 0 2 2 1 0 -1 -0 2 -1 -1 -2 -2 -1 -1 2 -4 -8 -9 -5 -3 -6 -9 -6 -5 2 2 -1
2 1 0 1 2 1 1 -0 0 -1 -0 -0 1 1 -0 0 -0 -0 1 -2 0 1 3 -2 0 -3 -1 0 -3 -1 -3 -1 2 -2 -1 -2 -4 -3 -4 -2 -3 -2 -0
4 3 -0 1 0 -0 -1 1 0 2 2 1 1 2 1 1 -0 -1 -1 -0 -1 -3 -2 0 -2 -2 0 -2 -2 -3 -4 2 3 7 4 2 -0 -1 -2 -1 -3 -1 -2
5 -0 1 2 -0 -1 -2 -1 1 1 1 2 -1 -1 0 0 -2 -3 -3 -1 2 2 -2 0 0 0 -0 2 -3 -2 -3 -2 -4 -6 1 -2 1 -2 2 3 3 0 -1
2 -1 -1 3 -1 -1 -2 -2 0 -1 0 -0 -1 0 1 0 -1 2 1 0 -9 -0 2 -2 -3 -1 -1 -1 -2 -2 1 -2 -3 -4 -3 2 1 -0 -1 -2 -6 -4 -3
2 2 2 -0 -2 -2 -2 0 0 -1 -1 -2 -1 -1 -1 0 0 -1 -7 -6 2 1 3 -1 -3 -2 -0 1 0 -0 -2 -1 -2 -3 -3 -6 -5 -4 -4 -3 -1 2 -1
Height
3181 3182 3182 3184 3185 3186 3186 3187 3187 3187 3186 3185 3184 3183 3182 3182 3181 3180 3179 3179 3178 3177 3176 3174 3173 3172 3171 3169 3168 3167 3167 3166 3166 3165 3164 3163 3164 3164 3164 3163 3163 3162 3162
3182 3183 3183 3184 3185 3186 3187 3188 3187 3187 3187 3186 3186 3185 3184 3184 3183 3182 3181 3180 3179 3178 3177 3175 3174 3173 3172 3171 3170 3169 3168 3168 3167 3167 3166 3166 3166 3165 3165 3165 3164 3163 3164
3182 3183 3183 3184 3186 3187 3188 3188 3188 3188 3187 3187 3187 3186 3186 3185 3185 3184 3182 3181 3180 3179 3178 3176 3174 3173 3172 3171 3171 3170 3169 3168 3168 3168 3168 3168 3167 3166 3166 3166 3166 3165 3165
3181 3182 3184 3185 3186 3187 3187 3188 3188 3188 3187 3187 3187 3187 3186 3186 3186 3185 3183 3182 3181 3179 3178 3176 3175 3173 3172 3171 3171 3171 3170 3169 3169 3169 3169 3168 3167 3167 3167 3167 3167 3166 3166
3181 3182 3184 3185 3186 3186 3187 3188 3188 3187 3187 3187 3187 3186 3186 3186 3185 3185 3183 3182 3181 3180 3178 3176 3174 3173 3171 3170 3170 3171 3171 3170 3169 3170 3169 3169 3169 3168 3168 3168 3167 3166 3166
3182 3183 3184 3185 3185 3186 3186 3186 3186 3186 3186 3187 3186 3186 3186 3185 3185 3184 3183 3182 3181 3179 3178 3176 3174 3173 3172 3170 3169 3169 3170 3170 3170 3170 3169 3169 3169 3168 3166 3166 3167 3167 3166
3182 3183 3184 3184 3184 3186 3186 3185 3185 3185 3185 3186 3185 3185 3185 3185 3184 3183 3182 3181 3180 3179 3178 3176 3174 3172 3170 3169 3169 3168 3167 3168 3168 3169 3168 3168 3168 3168 3167 3166 3165 3166 3166
3181 3182 3183 3183 3184 3184 3185 3184 3184 3185 3185 3185 3185 3184 3184 3184 3183 3182 3181 3180 3179 3178 3177 3176 3174 3173 3171 3168 3167 3167 3167 3165 3166 3166 3166 3166 3166 3167 3166 3165 3164 3164 3163
3180 3181 3181 3181 3182 3183 3182 3182 3183 3183 3183 3184 3184 3183 3182 3182 3182 3181 3180 3179 3178 3177 3175 3175 3174 3173 3172 3172 3167 3165 3163 3163 3163 3165 3164 3164 3165 3165 3164 3163 3163 3162 3162
3178 3178 3179 3179 3179 3180 3180 3180 3181 3182 3182 3182 3182 3181 3180 3180 3179 3179 3178 3178 3177 3176 3175 3174 3173 3171 3170 3165 3163 3159 3161 3162 3162 3161 3161 3162 3162 3162 3162 3160 3160 3160 3160
3175 3176 3177 3177 3176 3177 3177 3178 3178 3179 3180 3180 3180 3179 3179 3178 3177 3177 3177 3176 3175 3173 3172 3171 3169 3167 3164 3162 3157 3155 3153 3159 3159 3158 3158 3159 3159 3159 3159 3159 3158 3155 3156
3174 3174 3174 3175 3174 3174 3174 3175 3176 3177 3177 3178 3178 3177 3177 3176 3176 3175 3175 3174 3173 3171 3170 3168 3165 3163 3159 3156 3151 3146 3144 3151 3153 3155 3156 3157 3157 3156 3155 3154 3154 3150 3148
3173 3173 3173 3173 3172 3172 3172 3172 3173 3174 3175 3176 3175 3175 3174 3174 3174 3173 3173 3172 3170 3168 3166 3164 3161 3158 3155 3149 3147 3140 3133 3143 3150 3152 3153 3155 3153 3153 3153 3152 3151 3146 3143
3170 3169 3169 3170 3169 3170 3170 3169 3169 3170 3172 3173 3173 3173 3172 3172 3172 3171 3171 3169 3168 3165 3163 3160 3156 3153 3150 3146 3143 3140 3138 3142 3146 3147 3151 3152 3151 3150 3149 3147 3147 3140 3137
3167 3167 3166 3166 3166 3167 3167 3166 3165 3168 3170 3171 3170 3170 3170 3169 3170 3170 3169 3167 3165 3162 3159 3157 3154 3151 3147 3144 3141 3141 3141 3144 3145 3146 3149 3150 3150 3148 3146 3145 3143 3140 3135
3165 3164 3164 3164 3164 3164 3164 3164 3163 3165 3167 3168 3168 3168 3167 3167 3167 3166 3165 3163 3161 3159 3157 3154 3151 3148 3146 3143 3142 3142 3143 3144 3144 3145 3146 3146 3146 3145 3144 3142 3142 3140 3141
3161 3160 3161 3161 3161 3161 3162 3161 3161 3162 3164 3165 3165 3165 3164 3164 3163 3163 3161 3159 3159 3157 3155 3152 3149 3146 3144 3143 3142 3142 3143 3143 3143 3143 3143 3143 3144 3143 3141 3140 3139 3142 3141
3157 3156 3156 3157 3158 3159 3159 3159 3159 3160 3161 3162 3162 3162 3161 3160 3160 3159 3158 3157 3155 3153 3151 3149 3147 3144 3142 3140 3141 3141 3141 3142 3141 3141 3140 3140 3140 3139 3138 3138 3136 3136 3135
3153 3151 3151 3152 3154 3156 3157 3157 3157 3158 3159 3159 3159 3158 3158 3158 3157 3156 3155 3153 3152 3151 3149 3147 3145 3143 3142 3142 3141 3140 3140 3139 3139 3139 3138 3138 3137 3136 3135 3134 3133 3131 3130
3149 3148 3147 3148 3149 3152 3153 3153 3154 3155 3156 3156 3155 3155 3155 3155 3154 3153 3152 3149 3149 3148 3147 3146 3145 3143 3140 3139 3139 3138 3137 3137 3136 3135 3135 3134 3134 3132 3132 3131 3130 3129 3128
3146 3145 3144 3144 3145 3147 3148 3149 3150 3151 3151 3152 3152 3152 3152 3151 3150 3149 3149 3147 3147 3146 3146 3144 3142 3140 3139 3137 3137 3136 3135 3134 3133 3132 3131 3130 3129 3128 3127 3125 3123 3123 3121
3141 3142 3140 3139 3140 3141 3142 3143 3144 3146 3146 3147 3147 3147 3148 3147 3147 3146 3146 3145 3144 3143 3142 3141 3139 3138 3137 3136 3134 3133 3131 3132 3130 3128 3126 3125 3124 3123 3122 3121 3119 3118 3117
3137 3137 3135 3135 3136 3137 3138 3139 3140 3141 3142 3143 3143 3143 3143 3144 3144 3144 3143 3142 3140 3140 3139 3138 3137 3136 3134 3134 3133 3132 3129 3127 3125 3124 3121 3120 3119 3118 3117 3115 3113 3112 3111
3133 3133 3131 3131 3132 3133 3134 3135 3136 3137 3139 3139 3139 3139 3141 3141 3141 3140 3139 3138 3138 3136 3136 3135 3134 3133 3132 3130 3128 3127 3125 3123 3120 3117 3117 3115 3113 3112 3111 3109 3107 3106 3105
3127 3127 3126 3127 3127 3129 3130 3131 3132 3134 3135 3135 3136 3137 3137 3138 3137 3137 3136 3136 3135 3134 3132 3132 3131 3129 3127 3125 3123 3121 3119 3117 3116 3114 3112 3111 3108 3105 3103 3103 3102 3100 3098
3121 3121 3121 3122 3123 3124 3126 3127 3129 3130 3131 3131 3132 3132 3132 3132 3132 3132 3132 3132 3131 3130 3128 3126 3126 3124 3122 3120 3118 3116 3114 3113 3111 3109 3107 3105 3103 3101 3099 3096 3096 3094 3093